Location: Kaltenbach
(49.2000°N, 7.7500°E)
Time: 22:43:17
(UTC+00:00)

Meteor 2-17 Rocket - Pass Details

Date: 24 January 2020
Orbit: 934 x 957 km, 82.5° (Epoch: 18 February)

Event Time Altitude Azimuth Distance (km) Brightness Sun altitude
Rises 17:00:19 0° 178° (S) 3,622 7.7 -8.1°
Reaches altitude 10° 17:02:49 10° 176° (S) 2,679 7.0 -8.4°
Maximum altitude 17:08:53 67° 95° (E) 1,033 4.5 -9.4°
Drops below altitude 10° 17:14:58 10° 15° (NNE) 2,685 6.5 -10.3°
Sets 17:17:28 0° 12° (NNE) 3,631 7.2 -10.7°
